Location: Unspecified
(0.0000°N, 0.0000°E)
Time: 13:40:42
(UTC+00:00)

CUTE-I - Visible Passes

Search period start: 09 December 2019 00:00
Search period end: 19 December 2019 00:00
Orbit: 811 x 824 km, 98.7° (Epoch: 08 December)

Date Brightness Start Highest point End Pass type
(mag) Time Alt. Az. Time Alt. Az. Time Alt. Az.
09 Dec ? 18:35:12 10° SSW 18:39:59 34° WSW 18:44:47 10° NW visible
10 Dec ? 18:13:21 10° S 18:18:38 62° WSW 18:23:55 10° NNW visible
11 Dec ? 05:13:46 10° NE 05:18:04 25° ESE 05:22:21 10° SSE visible
12 Dec ? 04:54:08 10° ENE 04:56:44 14° ESE 04:59:20 10° SE visible
12 Dec ? 19:13:25 10° SW 19:15:39 13° WSW 19:17:54 10° WNW visible
13 Dec ? 18:50:09 10° SSW 18:54:19 23° WSW 18:58:29 10° NW visible
14 Dec ? 18:27:57 10° S 18:32:59 41° WSW 18:37:59 10° NNW visible
16 Dec ? 05:07:10 10° NE 05:11:03 21° ESE 05:14:55 10° SSE visible
17 Dec ? 04:48:20 10° E 04:49:43 11° ESE 04:51:05 10° ESE visible
17 Dec ? 19:05:33 10° SW 19:08:39 16° WSW 19:11:45 10° WNW visible
18 Dec ? 18:42:48 10° SSW 18:47:18 28° WSW 18:51:50 10° NW visible
